Change the Weather History Date:

Saturday, April 12, 2014

  Actual Average (KABY) Record (KABY)
Temperature  
Mean Temperature 71 °F 65 °F  
Max Temperature 86 °F 78 °F 88 °F (1948)
Min Temperature 56 °F 53 °F 33 °F (1989)
Degree Days  
Heating Degree Days 0 3  
Month to date heating degree days 40  
Since 1 July heating degree days 1809  
Cooling Degree Days 6 3  
Month to date cooling degree days 28  
Year to date cooling degree days 66  
Growing Degree Days 21 (Base 50)    
Moisture  
Dew Point 56 °F    
Average Humidity 65    
Maximum Humidity 92    
Minimum Humidity 33    
Precipitation  
Precipitation 0.00 in - 0.15 in (2008)
Sea Level Pressure  
Sea Level Pressure 30.18 in    
Wind  
Wind Speed 1 mph (SSE)    
Max Wind Speed 10 mph    
Max Gust Speed -    
Visibility 10 miles    
Events      
T = Trace of Precipitation, MM = Missing Value Source: NWS Daily Summary

Daily Weather History Graph

Daily Weather History Graph

Search for Another Location

Airport or City:

Trip Planner

Search our weather history database for the weather conditions in past years. The results will help you decide how hot, cold, wet, or windy it might be!

Date:

Astronomy

Apr. 12, 2014 Rise Set
Actual Time 7:09 AM EDT 8:02 PM EDT
Civil Twilight 6:44 AM EDT 8:27 PM EDT
Nautical Twilight 6:15 AM EDT 8:56 PM EDT
Astronomical Twilight 5:45 AM EDT 9:27 PM EDT
Moon 5:47 PM EDT (4/12) 5:26 AM EDT (4/12)
Length of Visible Light 13h 42m
Length of Day
12h 52m
Waxing Gibbous, 93% of the Moon is Illuminated
Apr 12
Waxing Gibbous
Apr 15
Full
Apr 22
Last Quarter
Apr 29
New
May 6
First Quarter

Hourly Weather History & Observations

Time (EDT) Temp. Heat Index Dew Point Humidity Pressure Visibility Wind Dir Wind Speed Gust Speed Precip Events Conditions
12:15 AM 61.7 °F - 57.6 °F 86% 30.20 in 10.0 mi Calm Calm - N/A   Clear
12:35 AM 61.0 °F - 57.4 °F 88% 30.20 in 10.0 mi Calm Calm - N/A   Clear
12:55 AM 60.8 °F - 57.9 °F 90% 30.20 in 10.0 mi Calm Calm - N/A   Clear
1:15 AM 60.4 °F - 57.6 °F 90% 30.20 in 10.0 mi Calm Calm - N/A   Clear
1:35 AM 59.9 °F - 57.2 °F 91% 30.20 in 10.0 mi Calm Calm - N/A   Clear
1:55 AM 59.5 °F - 57.0 °F 91% 30.20 in 10.0 mi Calm Calm - N/A   Clear
2:15 AM 59.5 °F - 56.7 °F 90% 30.20 in 10.0 mi Calm Calm - N/A   Clear
2:35 AM 59.2 °F - 56.1 °F 90% 30.20 in 10.0 mi Calm Calm - N/A   Clear
2:55 AM 58.6 °F - 55.9 °F 91% 30.19 in 10.0 mi Calm Calm - N/A   Clear
3:15 AM 58.5 °F - 55.9 °F 91% 30.19 in 10.0 mi Calm Calm - N/A   Clear
3:35 AM 58.1 °F - 55.4 °F 91% 30.19 in 10.0 mi Calm Calm - N/A   Scattered Clouds
3:55 AM 58.3 °F - 55.8 °F 91% 30.18 in 10.0 mi Calm Calm - N/A   Scattered Clouds
4:15 AM 57.7 °F - 54.7 °F 90% 30.17 in 10.0 mi Calm Calm - N/A   Scattered Clouds
4:35 AM 57.6 °F - 54.9 °F 91% 30.17 in 10.0 mi Calm Calm - N/A   Clear
4:55 AM 57.4 °F - 54.5 °F 90% 30.17 in 10.0 mi Calm Calm - N/A   Clear
5:15 AM 57.2 °F - 54.5 °F 91% 30.19 in 10.0 mi Calm Calm - N/A   Clear
5:35 AM 56.8 °F - 54.1 °F 91% 30.19 in 10.0 mi Calm Calm - N/A   Clear
5:55 AM 57.4 °F - 55.0 °F 92% 30.19 in 10.0 mi Calm Calm - N/A   Clear
6:15 AM 56.7 °F - 53.8 °F 90% 30.19 in 10.0 mi Calm Calm - N/A   Clear
6:35 AM 57.2 °F - 54.1 °F 89% 30.20 in 10.0 mi Calm Calm - N/A   Clear
6:55 AM 56.7 °F - 54.1 °F 91% 30.20 in 10.0 mi Calm Calm - N/A   Clear
7:15 AM 56.7 °F - 54.0 °F 91% 30.21 in 10.0 mi Calm Calm - N/A   Clear
7:35 AM 56.7 °F - 54.1 °F 91% 30.22 in 10.0 mi Calm Calm - N/A   Clear
7:55 AM 57.6 °F - 55.2 °F 92% 30.22 in 10.0 mi Calm Calm - N/A   Clear
8:15 AM 59.2 °F - 55.9 °F 89% 30.23 in 10.0 mi Calm Calm - N/A   Clear
8:35 AM 61.7 °F - 57.7 °F 87% 30.23 in 10.0 mi Calm Calm - N/A   Clear
8:55 AM 64.0 °F - 59.0 °F 84% 30.23 in 10.0 mi Calm Calm - N/A   Clear
9:15 AM 66.6 °F - 59.4 °F 78% 30.23 in 10.0 mi Calm Calm - N/A   Clear
9:35 AM 69.8 °F - 60.3 °F 72% 30.23 in 10.0 mi Calm Calm - N/A   Clear
9:55 AM 73.2 °F - 59.4 °F 62% 30.24 in 10.0 mi Calm Calm - N/A   Clear
10:15 AM 76.1 °F - 57.7 °F 53% 30.24 in 10.0 mi South 5.8 mph - N/A   Clear
10:35 AM 77.7 °F - 56.5 °F 48% 30.24 in 10.0 mi SE 5.8 mph - N/A   Clear
10:55 AM 79.0 °F - 55.8 °F 45% 30.24 in 10.0 mi SE 5.8 mph - N/A   Clear
11:15 AM 79.3 °F - 55.4 °F 44% 30.24 in 10.0 mi SE 6.9 mph - N/A   Clear
11:35 AM 79.9 °F - 55.8 °F 43% 30.24 in 10.0 mi SE 4.6 mph - N/A   Clear
11:55 AM 81.5 °F 81.1 °F 55.4 °F 41% 30.24 in 10.0 mi WSW 3.5 mph - N/A   Clear
12:15 PM 81.7 °F 81.2 °F 55.2 °F 40% 30.24 in 10.0 mi SE 8.1 mph - N/A   Scattered Clouds
12:35 PM 81.7 °F 81.0 °F 54.0 °F 38% 30.23 in 10.0 mi South 5.8 mph - N/A   Scattered Clouds
12:55 PM 82.0 °F 81.3 °F 54.0 °F 38% 30.22 in 10.0 mi South 5.8 mph - N/A   Scattered Clouds
1:15 PM 82.0 °F 81.4 °F 54.7 °F 39% 30.22 in 10.0 mi SSE 5.8 mph - N/A   Scattered Clouds
1:35 PM 83.1 °F 81.9 °F 53.8 °F 36% 30.21 in 10.0 mi East 3.5 mph - N/A   Mostly Cloudy
1:55 PM 83.5 °F 82.2 °F 54.0 °F 36% 30.20 in 10.0 mi Calm Calm - N/A   Mostly Cloudy
2:15 PM 82.0 °F 81.2 °F 53.6 °F 37% 30.19 in 10.0 mi SSE 3.5 mph - N/A   Mostly Cloudy
2:55 PM 83.8 °F 82.8 °F 55.4 °F 38% 30.19 in 10.0 mi WSW 4.6 mph - N/A   Mostly Cloudy
3:15 PM 84.9 °F 83.4 °F 54.3 °F 35% 30.17 in 10.0 mi SSW 5.8 mph - N/A   Mostly Cloudy
3:35 PM 84.0 °F 82.7 °F 54.3 °F 36% 30.16 in 10.0 mi SSE 4.6 mph - N/A   Scattered Clouds
3:55 PM 85.5 °F 84.0 °F 55.0 °F 35% 30.15 in 10.0 mi SE 10.4 mph - N/A   Mostly Cloudy
4:15 PM 85.6 °F 84.0 °F 54.3 °F 34% 30.14 in 10.0 mi East 5.8 mph - N/A   Overcast
4:35 PM 86.7 °F 84.9 °F 54.3 °F 33% 30.13 in 10.0 mi SSW 8.1 mph - N/A   Mostly Cloudy
4:55 PM 84.7 °F 83.1 °F 53.8 °F 34% 30.13 in 10.0 mi South 4.6 mph - N/A   Scattered Clouds
5:15 PM 84.6 °F 83.1 °F 54.1 °F 35% 30.12 in 10.0 mi SSE 5.8 mph - N/A   Clear
5:35 PM 86.2 °F 84.5 °F 54.5 °F 34% 30.12 in 10.0 mi SSE 5.8 mph - N/A   Scattered Clouds
5:55 PM 85.3 °F 83.6 °F 54.3 °F 34% 30.12 in 10.0 mi SSE 5.8 mph - N/A   Scattered Clouds
6:15 PM 85.3 °F 83.8 °F 54.7 °F 35% 30.12 in 10.0 mi South 4.6 mph - N/A   Scattered Clouds
6:35 PM 85.1 °F 83.6 °F 54.5 °F 35% 30.12 in 10.0 mi South 6.9 mph - N/A   Mostly Cloudy
6:55 PM 85.1 °F 83.6 °F 54.7 °F 35% 30.11 in 10.0 mi SSW 6.9 mph - N/A   Scattered Clouds
7:15 PM 84.4 °F 83.2 °F 55.2 °F 37% 30.11 in 10.0 mi South 5.8 mph - N/A   Clear
7:35 PM 83.5 °F 82.6 °F 55.9 °F 39% 30.12 in 10.0 mi South 6.9 mph - N/A   Clear
7:55 PM 82.4 °F 81.8 °F 56.1 °F 40% 30.12 in 10.0 mi Calm Calm - N/A   Clear
8:15 PM 76.5 °F - 59.2 °F 55% 30.12 in 10.0 mi Calm Calm - N/A   Clear
8:35 PM 74.3 °F - 60.6 °F 62% 30.12 in 10.0 mi Calm Calm - N/A   Clear
8:55 PM 73.0 °F - 61.0 °F 66% 30.12 in 10.0 mi Calm Calm - N/A   Clear
9:15 PM 71.8 °F - 61.0 °F 69% 30.13 in 10.0 mi Calm Calm - N/A   Clear
9:35 PM 71.2 °F - 61.2 °F 70% 30.13 in 10.0 mi Calm Calm - N/A   Clear
9:55 PM 68.9 °F - 61.9 °F 78% 30.14 in 10.0 mi Calm Calm - N/A   Clear
10:15 PM 69.1 °F - 61.3 °F 76% 30.14 in 10.0 mi Calm Calm - N/A   Clear
10:35 PM 68.5 °F - 61.7 °F 79% 30.14 in 10.0 mi Calm Calm - N/A   Clear
10:55 PM 68.0 °F - 61.7 °F 80% 30.14 in 10.0 mi Calm Calm - N/A   Clear
11:15 PM 66.9 °F - 61.5 °F 83% 30.14 in 10.0 mi Calm Calm - N/A   Clear
11:35 PM 67.1 °F - 61.5 °F 82% 30.14 in 10.0 mi Calm Calm - N/A   Mostly Cloudy
11:55 PM 68.0 °F - 61.7 °F 80% 30.15 in 10.0 mi Calm Calm - N/A   Mostly Cloudy